Stations météo

réclame
Mon MeteoGroup
Harsfjarden, Suède (2489): Température de l'air & dewpoint: 11.02.2018 20:00:00 - 17.02.2018 20:00:00 (CET)Harsfjarden, Suède (2489): Vitesse du vent & gusts: 11.02.2018 20:00:00 - 17.02.2018 20:00:00 (CET)Harsfjarden, Suède (2489): Direction du vent: 11.02.2018 20:00:00 - 17.02.2018 20:00:00 (CET)Harsfjarden, Suède (2489): reduced air pressure: 11.02.2018 20:00:00 - 17.02.2018 20:00:00 (CET)Harsfjarden, Suède (2489): visibility: 11.02.2018 20:00:00 - 17.02.2018 20:00:00 (CET)Harsfjarden, Suède (2489): Quantités de précipitations: 11.02.2018 20:00:00 - 17.02.2018 20:00:00 (CET)
Date & Time tt [°C] td [°C] ff [km/h] ff [knt] fx [km/h] fx [knt] dd ppp [hPa] vv [km] rr [mm]
17.02.2018 20:00:00 -1,0 -2,4 0 0 7 4 N 1024,2 35 0,0
17.02.2018 19:00:00 -0,7 -2,7 0 0 4 2 N 1024,1 40 0,0
17.02.2018 18:00:00 -0,7 -2,9 0 0 4 2 N 1023,9 45 0,0
17.02.2018 17:00:00 -0,2 -3,2 4 2 7 4 SE 1023,8 40 0,0
17.02.2018 16:00:00 0,0 -2,9 4 2 11 6 SE 1023,7 40 0,0
17.02.2018 15:00:00 0,2 -2,8 7 4 11 6 SE 1023,5 35 0,0
17.02.2018 14:00:00 0,4 -3,0 7 4 11 6 SE 1023,3 30 0,0
17.02.2018 13:00:00 0,7 -2,9 7 4 11 6 ESE 1023,3 25 0,0
17.02.2018 12:00:00 0,5 -3,2 7 4 11 6 E 1023,0 25 0,0
17.02.2018 11:00:00 -0,1 -2,8 7 4 14 8 NE 1022,8 19 0,0
17.02.2018 10:00:00 -0,9 -2,6 7 4 11 6 NNE 1022,8 15 0,0
17.02.2018 09:00:00 -1,6 -2,7 7 4 7 4 NNE 1022,5 13 0,0
17.02.2018 08:00:00 -1,4 -2,5 7 4 11 6 N 1022,2 13 0,1
17.02.2018 07:00:00 -1,0 -1,8 7 4 11 6 N 1022,0 11 0,0
17.02.2018 06:00:00 -1,0 -1,8 7 4 11 6 N 1021,7 7 0,0
17.02.2018 05:00:00 -1,0 -1,7 4 2 11 6 N 1021,4 14 0,0
17.02.2018 04:00:00 -0,8 -1,4 7 4 7 4 NNE 1021,1 5 0,0
17.02.2018 03:00:00 -0,4 -1,1 4 2 7 4 NE 1020,8 12 0,0
17.02.2018 02:00:00 -0,7 -1,1 4 2 11 6 NE 1020,4 8 0,1
17.02.2018 01:00:00 -0,6 -1,0 7 4 11 6 NNE 1020,0 8 0,0
17.02.2018 00:00:00 -0,3 -0,7 7 4 11 6 NNE 1019,7 8 0,0
16.02.2018 23:00:00 -0,2 -1,0 7 4 14 8 NE 1019,3 13 0,0
16.02.2018 22:00:00 -0,4 -1,0 7 4 18 10 NNE 1018,9 11 0,0
16.02.2018 21:00:00 -0,2 -0,8 11 6 18 10 NE 1018,6 13 0,0
16.02.2018 20:00:00 0,1 -0,5 4 2 11 6 NNE 1018,5 11 0,0
16.02.2018 19:00:00 0,3 -0,3 7 4 18 10 SE 1018,2 7 0,1
16.02.2018 18:00:00 0,6 -0,4 7 4 18 10 SE 1017,8 10 0,0
16.02.2018 17:00:00 0,6 -0,3 11 6 14 8 SE 1017,4 10 0,0
16.02.2018 16:00:00 0,5 -0,2 11 6 22 12 SE 1017,2 7 0,0
16.02.2018 15:00:00 0,7 -0,2 14 8 22 12 SSE 1017,1 7 0,1
16.02.2018 14:00:00 0,7 -0,2 14 8 25 14 SE 1017,1 9 0,0
16.02.2018 13:00:00 0,6 0,0 18 10 29 16 SSE 1017,1 9 0,0
16.02.2018 12:00:00 0,6 0,5 22 12 29 16 SSE 1017,1 11 0,2
16.02.2018 11:00:00 -0,1 -0,1 18 10 32 18 SSE 1017,0 2,3 0,4
16.02.2018 10:00:00 0,2 -0,4 18 10 22 12 SE 1016,9 5 0,0
16.02.2018 09:00:00 0,3 -0,8 14 8 25 14 S 1016,7 5 0,2
16.02.2018 08:00:00 0,7 -1,2 14 8 29 16 S 1016,7 12 0,0
16.02.2018 07:00:00 1,0 -1,7 14 8 25 14 SSE 1016,6 26 0,0
16.02.2018 06:00:00 1,2 -2,0 14 8 22 12 SE 1016,7 28 0,0
16.02.2018 05:00:00 1,3 -2,1 18 10 25 14 SSE 1017,0 40 0,0
16.02.2018 04:00:00 1,2 -2,0 18 10 29 16 S 1017,2 35 0,0
16.02.2018 03:00:00 1,1 -1,6 18 10 25 14 SE 1017,8 29 0,0
16.02.2018 02:00:00 1,3 -2,6 22 12 25 14 SSE 1018,3 30 0,0
16.02.2018 01:00:00 1,0 -1,4 14 8 25 14 SE 1018,8 30 0,0
16.02.2018 00:00:00 0,7 -2,5 18 10 22 12 SE 1019,4 40 0,0
15.02.2018 23:00:00 0,5 -2,5 18 10 29 16 SSE 1019,8 40 0,0
15.02.2018 22:00:00 0,5 -2,7 14 8 25 14 SE 1020,0 40 0,0
15.02.2018 21:00:00 0,6 -2,6 14 8 29 16 SSE 1020,4 45 0,0
15.02.2018 20:00:00 0,3 -2,2 22 12 32 18 SE 1021,1 40 0,0
15.02.2018 19:00:00 0,4 -1,8 25 14 32 18 SE 1021,6 40 0,0
15.02.2018 18:00:00 0,5 -2,2 18 10 32 18 SE 1022,2 45 0,0
15.02.2018 17:00:00 0,9 -1,5 22 12 32 18 SE 1022,5 45 0,0
15.02.2018 16:00:00 1,2 -0,6 22 12 32 18 SSE 1022,7 25 0,0
15.02.2018 15:00:00 0,8 -1,0 14 8 32 18 S 1023,2 17 0,0
15.02.2018 14:00:00 1,8 0,0 22 12 - - SSE 1023,7 23 0,0
15.02.2018 13:00:00 1,7 -1,4 22 12 25 14 SSE 1024,2 30 0,0
15.02.2018 12:00:00 2,1 -0,7 18 10 25 14 SSE 1024,7 40 0,0
15.02.2018 11:00:00 1,8 -0,5 22 12 25 14 SSE 1025,1 22 0,0
15.02.2018 10:00:00 1,6 -0,3 18 10 22 12 SSE 1025,2 45 0,0
15.02.2018 09:00:00 0,9 0,0 11 6 14 8 SSE 1025,2 35 0,0
15.02.2018 08:00:00 -0,7 -2,1 0 0 11 6 N 1025,5 45 0,0
15.02.2018 07:00:00 0,3 -1,0 7 4 18 10 SSE 1025,6 45 0,0
15.02.2018 06:00:00 -3,3 -3,4 0 0 4 2 N 1025,7 27 0,0
15.02.2018 05:00:00 -4,4 -4,7 4 2 4 2 W 1025,6 29 0,0
15.02.2018 04:00:00 -5,0 -5,3 0 0 4 2 N 1025,5 23 0,0
15.02.2018 03:00:00 -4,6 -4,9 0 0 4 2 N 1025,8 19 0,0
15.02.2018 02:00:00 -3,9 -4,0 4 2 4 2 NNW 1026,0 35 0,0
15.02.2018 01:00:00 -3,4 -3,4 0 0 4 2 N 1025,7 22 0,0
15.02.2018 00:00:00 -3,4 -3,4 4 2 4 2 N 1025,7 15 0,0
14.02.2018 23:00:00 -3,2 -3,2 0 0 4 2 N 1025,6 14 0,0
14.02.2018 22:00:00 -3,1 -3,1 0 0 4 2 N 1025,6 14 0,0
14.02.2018 21:00:00 -2,9 -2,9 0 0 4 2 N 1025,7 14 0,0
14.02.2018 20:00:00 -2,5 -2,6 0 0 4 2 N 1025,5 17 0,0
14.02.2018 19:00:00 -2,0 -2,3 0 0 4 2 N 1025,4 30 0,0
14.02.2018 18:00:00 -1,8 -2,2 0 0 7 4 N 1025,0 45 0,0
14.02.2018 17:00:00 -0,9 -1,9 0 0 11 6 N 1024,6 50 0,0
14.02.2018 16:00:00 1,5 -0,9 7 4 11 6 S 1024,3 50 0,0
14.02.2018 15:00:00 3,1 -0,9 7 4 14 8 S 1023,9 45 0,0
14.02.2018 14:00:00 3,2 -1,6 11 6 14 8 S 1023,7 45 0,0
14.02.2018 13:00:00 3,0 -0,8 7 4 18 10 S 1023,7 45 0,0
14.02.2018 12:00:00 2,6 -1,4 7 4 11 6 SW 1023,4 50 0,0
14.02.2018 11:00:00 2,3 0,8 4 2 14 8 SSW 1023,0 40 0,0
14.02.2018 10:00:00 0,5 0,3 0 0 7 4 N 1022,5 45 0,0
14.02.2018 09:00:00 -0,2 -0,2 4 2 4 2 W 1022,0 40 0,0
14.02.2018 08:00:00 -0,9 -1,0 0 0 4 2 N 1021,2 30 0,0
14.02.2018 07:00:00 -1,3 -1,3 0 0 4 2 N 1020,5 30 0,0
14.02.2018 06:00:00 -1,7 -1,7 0 0 4 2 N 1019,8 27 0,0
14.02.2018 05:00:00 -1,1 -1,1 0 0 4 2 N 1019,3 40 0,0
14.02.2018 04:00:00 -1,2 -1,2 0 0 4 2 N 1018,8 40 0,0
14.02.2018 03:00:00 -1,5 -1,5 0 0 4 2 N 1018,3 35 0,0
14.02.2018 02:00:00 -2,1 -2,1 0 0 0 0 N 1017,9 45 0,0
14.02.2018 01:00:00 -2,7 -2,7 0 0 4 2 N 1017,2 30 0,0
14.02.2018 00:00:00 -2,0 -2,0 0 0 7 4 N 1016,5 30 0,0
13.02.2018 23:00:00 -1,7 -1,8 0 0 4 2 N 1016,2 35 0,0
13.02.2018 22:00:00 -1,8 -1,9 0 0 4 2 N 1015,8 28 0,0
13.02.2018 21:00:00 -1,1 -1,5 0 0 4 2 N 1015,2 30 0,0
13.02.2018 20:00:00 0,3 -0,8 4 2 14 8 W 1014,7 45 0,0
13.02.2018 19:00:00 -0,1 -0,8 4 2 7 4 WSW 1013,7 40 0,0
13.02.2018 18:00:00 0,6 -0,7 4 2 11 6 SW 1013,0 45 0,0
13.02.2018 17:00:00 1,2 0,0 7 4 14 8 SSW 1012,2 40 0,0
13.02.2018 16:00:00 1,4 0,2 11 6 18 10 SW 1011,3 40 0,0
13.02.2018 15:00:00 1,4 0,7 11 6 25 14 SW 1010,6 16 0,1
13.02.2018 14:00:00 1,4 0,4 14 8 25 14 SSW 1010,0 19 0,1
13.02.2018 13:00:00 1,4 0,1 18 10 36 19 SW 1009,7 6 0,1
13.02.2018 12:00:00 1,4 -0,1 14 8 25 14 SW 1009,1 30 0,1
13.02.2018 11:00:00 1,1 0,2 18 10 25 14 SSW 1008,4 11 0,1
13.02.2018 10:00:00 1,5 -0,7 14 8 32 18 SW 1007,4 16 0,0
13.02.2018 09:00:00 1,7 -1,0 22 12 36 19 SW 1006,7 45 0,0
13.02.2018 08:00:00 1,6 -1,0 18 10 32 18 SW 1005,8 50 0,0
13.02.2018 07:00:00 1,7 -1,0 18 10 36 19 SW 1005,0 50 0,0
13.02.2018 06:00:00 1,8 -0,6 18 10 32 18 SW 1004,1 50 0,0
13.02.2018 05:00:00 1,7 -0,6 18 10 36 19 SW 1003,4 50 0,0
13.02.2018 04:00:00 1,9 -0,4 25 14 40 21 SW 1002,5 45 0,0
13.02.2018 03:00:00 1,8 0,0 22 12 32 18 SSW 1001,6 45 0,0
13.02.2018 02:00:00 1,4 0,4 22 12 40 21 SSW 1000,8 30 0,5
13.02.2018 01:00:00 1,5 0,5 22 12 40 21 SSW 1000,1 7 0,4
13.02.2018 00:00:00 2,3 0,0 25 14 43 23 SSW 999,4 45 0,0
12.02.2018 23:00:00 2,3 0,2 29 16 43 23 S 999,2 50 0,1
12.02.2018 22:00:00 2,4 0,8 25 14 43 23 S 998,9 45 0,0
12.02.2018 21:00:00 2,0 0,8 29 16 47 25 S 998,8 30 0,3
12.02.2018 20:00:00 2,1 1,1 32 18 50 27 S 998,7 14 0,0
12.02.2018 19:00:00 2,4 0,6 36 19 50 27 S 999,0 24 0,1
12.02.2018 18:00:00 2,7 0,8 32 18 50 27 S 999,1 27 0,0
12.02.2018 17:00:00 2,8 0,5 36 19 47 25 S 999,1 30 0,0
12.02.2018 16:00:00 2,8 0,5 29 16 43 23 S 999,3 30 0,0
12.02.2018 15:00:00 2,8 0,9 29 16 43 23 S 999,3 30 0,0
12.02.2018 14:00:00 3,0 1,0 29 16 40 21 S 999,2 25 0,0
12.02.2018 13:00:00 2,7 1,8 22 12 40 21 S 999,6 13 0,1
12.02.2018 12:00:00 2,7 1,7 29 16 40 21 SSE 999,6 11 0,0
12.02.2018 11:00:00 2,5 1,6 25 14 32 18 SSE 999,6 9 0,0
12.02.2018 10:00:00 2,2 1,3 25 14 32 18 SSE 999,5 9 0,0
12.02.2018 09:00:00 1,7 1,1 25 14 32 18 SSE 999,3 8 0,0
12.02.2018 08:00:00 1,6 1,0 22 12 32 18 SE 999,2 8 0,3
12.02.2018 07:00:00 1,7 1,1 22 12 36 19 SE 999,3 6 0,0
12.02.2018 06:00:00 1,0 1,0 25 14 40 21 SE 999,6 3,8 0,4
12.02.2018 05:00:00 0,6 0,6 25 14 43 23 SE 999,9 3,0 0,4
12.02.2018 04:00:00 0,5 0,5 25 14 40 21 SE 1000,3 2,9 0,5
12.02.2018 03:00:00 0,7 0,6 22 12 32 18 SSE 1000,5 2,6 0,2
12.02.2018 02:00:00 0,3 0,2 25 14 36 19 SE 1000,8 6 0,2
12.02.2018 01:00:00 -0,1 -0,2 25 14 36 19 SE 1001,6 2,2 0,4
12.02.2018 00:00:00 0,3 -1,5 22 12 36 19 SE 1002,3 8 0,0
11.02.2018 23:00:00 0,0 -2,5 22 12 36 19 SE 1002,7 15 0,0
11.02.2018 22:00:00 -0,9 -2,3 22 12 32 18 SE 1003,2 12 0,2
11.02.2018 21:00:00 -1,2 -2,9 22 12 36 19 SE 1003,6 3,1 0,0
11.02.2018 20:00:00 -1,0 -3,7 22 12 32 18 SE 1004,0 23 0,1

tt = Température de l'air
td = dewpoint
ff = Vitesse du vent
fx = gusts
dd = Direction du vent
ppp = reduced air pressure
vv = visibility
rr = Quantités de précipitations

stations d'obs. à proximité